TimeCST,TemperatureF,Dew PointF,Humidity,Sea Level PressureIn,VisibilityMPH,Wind Direction,Wind SpeedMPH,Gust SpeedMPH,PrecipitationIn,Events,Conditions,WindDirDegrees,DateUTC
12:15 AM,33.8,28.0,79,30.06,10.0,SSW,4.6,-,N/A,,Clear,210,2013-12-28 06:15:00
12:35 AM,32.0,27.5,83,30.05,10.0,SSW,8.1,-,N/A,,Clear,210,2013-12-28 06:35:00
12:55 AM,32.2,27.5,83,30.04,10.0,South,6.9,-,N/A,,Clear,190,2013-12-28 06:55:00
1:15 AM,32.0,27.5,83,30.04,10.0,Calm,Calm,-,N/A,,Clear,0,2013-12-28 07:15:00
1:35 AM,33.8,28.2,80,30.03,10.0,Calm,Calm,-,N/A,,Clear,0,2013-12-28 07:35:00
1:55 AM,33.1,27.3,79,30.02,10.0,Calm,Calm,-,N/A,,Clear,0,2013-12-28 07:55:00
2:15 AM,31.8,27.3,83,30.02,10.0,SSE,3.5,-,N/A,,Clear,160,2013-12-28 08:15:00
2:35 AM,30.2,26.2,85,30.02,10.0,South,5.8,-,N/A,,Clear,170,2013-12-28 08:35:00
2:55 AM,30.4,27.0,87,30.01,10.0,South,6.9,-,N/A,,Clear,170,2013-12-28 08:55:00
3:15 AM,29.1,25.9,88,30.01,10.0,South,8.1,-,N/A,,Clear,180,2013-12-28 09:15:00
3:35 AM,29.8,26.1,86,30.00,10.0,South,8.1,-,N/A,,Clear,190,2013-12-28 09:35:00
3:55 AM,30.4,26.6,86,29.99,10.0,South,6.9,-,N/A,,Clear,170,2013-12-28 09:55:00
4:15 AM,31.3,26.6,83,29.98,10.0,South,6.9,-,N/A,,Clear,170,2013-12-28 10:15:00
4:35 AM,30.9,26.6,84,29.97,10.0,South,9.2,-,N/A,,Clear,180,2013-12-28 10:35:00
4:55 AM,31.1,26.6,83,29.97,10.0,South,10.4,-,N/A,,Clear,180,2013-12-28 10:55:00
5:15 AM,30.9,26.4,83,29.96,10.0,South,10.4,-,N/A,,Clear,190,2013-12-28 11:15:00
5:35 AM,30.9,26.4,83,29.96,10.0,South,9.2,-,N/A,,Clear,190,2013-12-28 11:35:00
5:55 AM,29.8,25.9,85,29.96,10.0,South,8.1,-,N/A,,Clear,180,2013-12-28 11:55:00
6:15 AM,30.2,25.9,84,29.95,10.0,South,4.6,-,N/A,,Clear,170,2013-12-28 12:15:00
6:35 AM,28.4,24.6,86,29.94,10.0,South,6.9,-,N/A,,Clear,180,2013-12-28 12:35:00
6:55 AM,28.6,25.2,87,29.94,10.0,South,8.1,-,N/A,,Clear,190,2013-12-28 12:55:00
7:15 AM,29.1,25.3,86,29.93,10.0,South,6.9,-,N/A,,Clear,180,2013-12-28 13:15:00
7:35 AM,29.1,25.3,86,29.93,10.0,South,6.9,-,N/A,,Clear,170,2013-12-28 13:35:00
7:55 AM,29.3,25.2,85,29.93,10.0,South,8.1,-,N/A,,Clear,180,2013-12-28 13:55:00
8:15 AM,30.4,26.1,84,29.92,10.0,South,8.1,-,N/A,,Clear,190,2013-12-28 14:15:00
8:35 AM,32.0,27.5,83,29.92,10.0,South,9.2,-,N/A,,Clear,190,2013-12-28 14:35:00
8:55 AM,33.8,28.4,81,29.92,10.0,SSW,8.1,-,N/A,,Clear,200,2013-12-28 14:55:00
9:15 AM,35.1,29.1,79,29.92,10.0,South,9.2,-,N/A,,Clear,190,2013-12-28 15:15:00
9:35 AM,36.7,30.0,77,29.91,10.0,SSW,9.2,-,N/A,,Clear,200,2013-12-28 15:35:00
9:55 AM,38.3,30.6,74,29.90,10.0,SSW,10.4,-,N/A,,Clear,200,2013-12-28 15:55:00
10:15 AM,40.1,31.3,71,29.90,10.0,SSW,11.5,-,N/A,,Clear,200,2013-12-28 16:15:00
10:35 AM,41.4,31.6,68,29.89,10.0,SSW,11.5,-,N/A,,Clear,200,2013-12-28 16:35:00
10:55 AM,43.0,32.0,65,29.89,10.0,SSW,8.1,-,N/A,,Clear,200,2013-12-28 16:55:00
11:15 AM,44.6,32.2,62,29.88,10.0,South,9.2,-,N/A,,Clear,190,2013-12-28 17:15:00
11:35 AM,45.9,32.2,59,29.86,10.0,SSW,9.2,-,N/A,,Clear,210,2013-12-28 17:35:00
11:55 AM,47.5,31.8,55,29.84,10.0,SSW,11.5,-,N/A,,Clear,210,2013-12-28 17:55:00
12:15 PM,49.1,33.1,54,29.83,10.0,SSW,13.8,-,N/A,,Clear,200,2013-12-28 18:15:00
12:35 PM,50.4,32.0,49,29.82,10.0,SSW,16.1,-,N/A,,Clear,210,2013-12-28 18:35:00
12:55 PM,51.8,32.0,47,29.81,10.0,SSW,15.0,21.9,N/A,,Clear,210,2013-12-28 18:55:00
1:15 PM,52.2,32.4,47,29.81,10.0,SSW,13.8,-,N/A,,Clear,210,2013-12-28 19:15:00
1:35 PM,51.4,32.5,49,29.79,10.0,SSW,16.1,-,N/A,,Clear,200,2013-12-28 19:35:00
1:55 PM,51.1,32.7,50,29.79,10.0,SSW,16.1,-,N/A,,Clear,200,2013-12-28 19:55:00
2:15 PM,50.5,32.2,49,29.77,10.0,SSW,16.1,-,N/A,,Clear,200,2013-12-28 20:15:00
2:35 PM,50.4,32.9,51,29.77,10.0,SSW,13.8,-,N/A,,Clear,200,2013-12-28 20:35:00
2:55 PM,50.0,32.9,52,29.77,10.0,SSW,16.1,20.7,N/A,,Clear,210,2013-12-28 20:55:00
3:15 PM,48.2,32.7,55,29.77,10.0,South,15.0,-,N/A,,Clear,190,2013-12-28 21:15:00
3:35 PM,46.8,32.9,59,29.77,10.0,South,13.8,-,N/A,,Clear,190,2013-12-28 21:35:00
3:55 PM,45.5,32.0,59,29.77,10.0,South,13.8,-,N/A,,Clear,190,2013-12-28 21:55:00
4:15 PM,44.1,32.0,63,29.77,10.0,South,11.5,-,N/A,,Clear,190,2013-12-28 22:15:00
4:35 PM,42.1,31.3,66,29.77,10.0,South,10.4,-,N/A,,Clear,190,2013-12-28 22:35:00
4:55 PM,40.1,30.9,70,29.77,10.0,South,10.4,-,N/A,,Clear,190,2013-12-28 22:55:00
5:15 PM,38.5,30.2,72,29.77,10.0,South,11.5,-,N/A,,Clear,190,2013-12-28 23:15:00
5:35 PM,38.3,30.2,73,29.77,10.0,SSW,10.4,-,N/A,,Clear,200,2013-12-28 23:35:00
5:55 PM,38.3,30.0,72,29.78,10.0,SSW,8.1,-,N/A,,Clear,200,2013-12-28 23:55:00
6:15 PM,36.5,30.0,77,29.78,10.0,SSW,8.1,-,N/A,,Clear,200,2013-12-29 00:15:00
6:35 PM,37.4,30.0,75,29.78,10.0,SSW,11.5,-,N/A,,Clear,200,2013-12-29 00:35:00
6:55 PM,37.0,30.0,76,29.78,10.0,SSW,10.4,-,N/A,,Clear,200,2013-12-29 00:55:00
7:15 PM,35.8,29.7,78,29.79,10.0,SW,6.9,-,N/A,,Clear,220,2013-12-29 01:15:00
7:35 PM,35.4,29.8,80,29.81,10.0,SW,11.5,-,N/A,,Clear,230,2013-12-29 01:35:00
7:55 PM,37.6,30.0,74,29.82,10.0,West,13.8,-,N/A,,Clear,270,2013-12-29 01:55:00
8:15 PM,37.8,30.6,75,29.84,10.0,West,17.3,-,N/A,,Clear,280,2013-12-29 02:15:00
8:35 PM,36.5,30.4,78,29.84,10.0,WNW,13.8,-,N/A,,Clear,300,2013-12-29 02:35:00
8:55 PM,36.7,30.2,77,29.86,10.0,NW,13.8,-,N/A,,Clear,310,2013-12-29 02:55:00
9:15 PM,35.6,30.4,81,29.88,10.0,NNW,21.9,35.7,N/A,,Mostly Cloudy,330,2013-12-29 03:15:00
9:35 PM,33.4,29.3,85,29.90,10.0,NNW,23.0,33.4,N/A,,Overcast,340,2013-12-29 03:35:00
9:55 PM,32.0,27.5,83,29.92,10.0,NNW,23.0,27.6,N/A,,Overcast,330,2013-12-29 03:55:00
10:15 PM,31.5,26.6,82,29.93,10.0,NNW,20.7,31.1,N/A,,Overcast,330,2013-12-29 04:15:00
10:35 PM,29.8,25.2,83,29.95,10.0,NW,27.6,33.4,N/A,,Overcast,320,2013-12-29 04:35:00
10:55 PM,28.0,23.2,82,29.97,10.0,NNW,26.5,33.4,N/A,,Overcast,340,2013-12-29 04:55:00
11:15 PM,25.7,21.0,82,29.99,10.0,NW,24.2,32.2,N/A,,Overcast,310,2013-12-29 05:15:00
11:35 PM,23.0,18.0,81,30.01,10.0,NW,26.5,34.5,N/A,,Overcast,320,2013-12-29 05:35:00
11:55 PM,21.2,15.8,80,30.02,10.0,NW,27.6,34.5,N/A,,Overcast,320,2013-12-29 05:55:00